Time,TemperatureF,DewpointF,PressureIn,WindDirection,WindDirectionDegrees,WindSpeedMPH,WindSpeedGustMPH,Humidity,HourlyPrecipIn,Conditions,Clouds,dailyrainin,SoftwareType,DateUTC
2013-01-05 00:04:00,63.1,62.0,30.21,ENE,66,5.0,8.0,95,0.00,,,0.00,weatherlink.com 1.10,2013-01-05 05:04:00,
2013-01-05 00:19:00,63.1,62.0,30.20,East,83,3.0,7.0,96,0.00,,,0.00,weatherlink.com 1.10,2013-01-05 05:19:00,
2013-01-05 00:34:00,63.1,62.0,30.20,ENE,71,3.0,7.0,96,0.00,,,0.00,weatherlink.com 1.10,2013-01-05 05:34:00,
2013-01-05 00:49:00,63.1,62.0,30.20,East,82,3.0,8.0,96,0.00,,,0.00,weatherlink.com 1.10,2013-01-05 05:49:00,
2013-01-05 01:04:00,62.9,62.0,30.20,ENE,77,3.0,8.0,96,0.00,,,0.00,weatherlink.com 1.10,2013-01-05 06:04:00,
2013-01-05 01:19:00,62.7,62.0,30.20,NE,55,0.0,8.0,96,0.00,,,0.00,weatherlink.com 1.10,2013-01-05 06:19:00,
2013-01-05 01:34:00,62.6,62.0,30.20,ENE,57,3.0,10.0,96,0.00,,,0.00,weatherlink.com 1.10,2013-01-05 06:34:00,
2013-01-05 01:49:00,62.3,61.0,30.19,NE,36,5.0,10.0,96,0.00,,,0.00,weatherlink.com 1.10,2013-01-05 06:49:00,
2013-01-05 02:04:00,62.2,61.0,30.19,NE,51,3.0,9.0,97,0.00,,,0.00,weatherlink.com 1.10,2013-01-05 07:04:00,
2013-01-05 02:19:00,62.1,61.0,30.19,NE,49,3.0,9.0,97,0.00,,,0.00,weatherlink.com 1.10,2013-01-05 07:19:00,
2013-01-05 02:34:00,62.0,61.0,30.19,ENE,59,4.0,9.0,97,0.00,,,0.00,weatherlink.com 1.10,2013-01-05 07:34:00,
2013-01-05 02:49:00,61.8,61.0,30.19,ENE,67,5.0,11.0,97,0.00,,,0.00,weatherlink.com 1.10,2013-01-05 07:49:00,
2013-01-05 03:04:00,61.7,61.0,30.19,ENE,76,4.0,9.0,97,0.00,,,0.00,weatherlink.com 1.10,2013-01-05 08:04:00,
2013-01-05 03:19:00,61.6,61.0,30.18,East,79,7.0,11.0,97,0.00,,,0.00,weatherlink.com 1.10,2013-01-05 08:19:00,
2013-01-05 03:34:00,61.5,61.0,30.18,ENE,57,4.0,10.0,97,0.00,,,0.00,weatherlink.com 1.10,2013-01-05 08:34:00,
2013-01-05 03:49:00,61.5,61.0,30.18,ENE,76,8.0,10.0,97,0.00,,,0.00,weatherlink.com 1.10,2013-01-05 08:49:00,
2013-01-05 04:04:00,61.6,61.0,30.18,ENE,57,9.0,12.0,97,0.00,,,0.00,weatherlink.com 1.10,2013-01-05 09:04:00,
2013-01-05 04:19:00,61.6,61.0,30.18,NE,47,6.0,10.0,97,0.00,,,0.00,weatherlink.com 1.10,2013-01-05 09:19:00,
2013-01-05 04:34:00,61.6,61.0,30.18,ENE,74,8.0,10.0,97,0.00,,,0.00,weatherlink.com 1.10,2013-01-05 09:34:00,
2013-01-05 04:49:00,61.7,61.0,30.18,ENE,73,4.0,9.0,96,0.00,,,0.00,weatherlink.com 1.10,2013-01-05 09:49:00,
2013-01-05 05:05:00,61.8,61.0,30.19,ENE,66,9.0,11.0,96,0.00,,,0.00,weatherlink.com 1.10,2013-01-05 10:05:00,
2013-01-05 05:20:00,61.9,61.0,30.19,ENE,64,7.0,10.0,96,0.00,,,0.00,weatherlink.com 1.10,2013-01-05 10:20:00,
2013-01-05 05:35:00,61.9,61.0,30.20,East,83,8.0,11.0,96,0.00,,,0.00,weatherlink.com 1.10,2013-01-05 10:35:00,
2013-01-05 05:50:00,61.9,61.0,30.19,East,96,6.0,13.0,96,0.00,,,0.00,weatherlink.com 1.10,2013-01-05 10:50:00,
2013-01-05 06:05:00,61.9,61.0,30.20,ENE,76,5.0,12.0,96,0.00,,,0.00,weatherlink.com 1.10,2013-01-05 11:05:00,
2013-01-05 06:20:00,61.8,60.0,30.20,ENE,69,7.0,11.0,95,0.00,,,0.00,weatherlink.com 1.10,2013-01-05 11:20:00,
2013-01-05 06:35:00,61.7,60.0,30.20,NE,50,5.0,11.0,95,0.00,,,0.00,weatherlink.com 1.10,2013-01-05 11:35:00,
2013-01-05 06:50:00,61.7,60.0,30.21,ENE,67,5.0,8.0,95,0.00,,,0.00,weatherlink.com 1.10,2013-01-05 11:50:00,
2013-01-05 07:05:00,61.6,60.0,30.21,ENE,69,1.0,8.0,95,0.00,,,0.00,weatherlink.com 1.10,2013-01-05 12:05:00,
2013-01-05 07:20:00,61.7,60.0,30.21,East,87,2.0,6.0,95,0.00,,,0.00,weatherlink.com 1.10,2013-01-05 12:20:00,
2013-01-05 07:35:00,61.7,60.0,30.22,East,80,1.0,5.0,95,0.00,,,0.00,weatherlink.com 1.10,2013-01-05 12:35:00,
2013-01-05 07:50:00,61.7,60.0,30.23,East,79,0.0,5.0,95,0.00,,,0.00,weatherlink.com 1.10,2013-01-05 12:50:00,
2013-01-05 08:05:00,62.0,60.0,30.23,East,82,3.0,8.0,94,0.00,,,0.00,weatherlink.com 1.10,2013-01-05 13:05:00,
2013-01-05 08:20:00,62.2,61.0,30.23,East,81,7.0,10.0,94,0.00,,,0.00,weatherlink.com 1.10,2013-01-05 13:20:00,
2013-01-05 08:35:00,62.5,61.0,30.24,East,90,3.0,10.0,93,0.00,,,0.00,weatherlink.com 1.10,2013-01-05 13:35:00,
2013-01-05 08:50:00,63.0,61.0,30.23,East,98,5.0,9.0,93,0.00,,,0.00,weatherlink.com 1.10,2013-01-05 13:50:00,
2013-01-05 09:05:00,63.5,61.0,30.23,ENE,66,5.0,9.0,91,0.00,,,0.00,weatherlink.com 1.10,2013-01-05 14:05:00,
2013-01-05 09:20:00,64.7,62.0,30.24,ESE,110,0.0,7.0,89,0.00,,,0.00,weatherlink.com 1.10,2013-01-05 14:20:00,
2013-01-05 09:35:00,65.2,62.0,30.24,ENE,76,5.0,9.0,88,0.00,,,0.00,weatherlink.com 1.10,2013-01-05 14:35:00,
2013-01-05 09:50:00,65.8,62.0,30.24,East,88,3.0,9.0,88,0.00,,,0.00,weatherlink.com 1.10,2013-01-05 14:50:00,
2013-01-05 10:05:00,67.0,63.0,30.24,ENE,74,3.0,7.0,86,0.00,,,0.00,weatherlink.com 1.10,2013-01-05 15:05:00,
2013-01-05 10:20:00,67.4,63.0,30.23,East,82,7.0,10.0,85,0.00,,,0.00,weatherlink.com 1.10,2013-01-05 15:20:00,
2013-01-05 10:35:00,68.4,63.0,30.23,East,82,6.0,11.0,82,0.00,,,0.00,weatherlink.com 1.10,2013-01-05 15:35:00,
2013-01-05 10:50:00,69.5,63.0,30.23,East,84,5.0,8.0,81,0.00,,,0.00,weatherlink.com 1.10,2013-01-05 15:50:00,
2013-01-05 11:05:00,70.4,64.0,30.22,East,99,2.0,9.0,80,0.00,,,0.00,weatherlink.com 1.10,2013-01-05 16:05:00,
2013-01-05 11:20:00,71.1,64.0,30.22,East,85,2.0,11.0,78,0.00,,,0.00,weatherlink.com 1.10,2013-01-05 16:20:00,
2013-01-05 11:35:00,72.2,65.0,30.21,East,86,5.0,8.0,77,0.00,,,0.00,weatherlink.com 1.10,2013-01-05 16:35:00,
2013-01-05 11:50:00,73.3,65.0,30.21,ENE,67,3.0,7.0,74,0.00,,,0.00,weatherlink.com 1.10,2013-01-05 16:50:00,
2013-01-05 12:05:00,74.0,65.0,30.20,ESE,105,2.0,6.0,74,0.00,,,0.00,weatherlink.com 1.10,2013-01-05 17:05:00,
2013-01-05 12:20:00,74.3,65.0,30.20,NE,45,5.0,10.0,73,0.00,,,0.00,weatherlink.com 1.10,2013-01-05 17:20:00,
2013-01-05 12:35:00,74.2,65.0,30.19,ENE,75,3.0,10.0,73,0.00,,,0.00,weatherlink.com 1.10,2013-01-05 17:35:00,
2013-01-05 12:50:00,74.6,65.0,30.18,NE,47,2.0,9.0,73,0.00,,,0.00,weatherlink.com 1.10,2013-01-05 17:50:00,
2013-01-05 13:05:00,75.5,66.0,30.18,ENE,66,4.0,7.0,73,0.00,,,0.00,weatherlink.com 1.10,2013-01-05 18:05:00,
2013-01-05 13:21:00,75.5,66.0,30.16,East,89,3.0,11.0,73,0.00,,,0.00,weatherlink.com 1.10,2013-01-05 18:21:00,
2013-01-05 13:36:00,76.4,67.0,30.15,ENE,65,4.0,9.0,72,0.00,,,0.00,weatherlink.com 1.10,2013-01-05 18:36:00,
2013-01-05 13:51:00,77.0,67.0,30.14,NE,47,5.0,9.0,70,0.00,,,0.00,weatherlink.com 1.10,2013-01-05 18:51:00,
2013-01-05 14:06:00,78.5,67.0,30.14,NE,40,11.0,11.0,68,0.00,,,0.00,weatherlink.com 1.10,2013-01-05 19:06:00,
2013-01-05 14:21:00,78.1,68.0,30.14,ENE,78,2.0,7.0,70,0.00,,,0.00,weatherlink.com 1.10,2013-01-05 19:21:00,
2013-01-05 14:36:00,79.6,67.0,30.14,ENE,67,1.0,6.0,66,0.00,,,0.00,weatherlink.com 1.10,2013-01-05 19:36:00,
2013-01-05 14:51:00,80.0,68.0,30.14,East,86,1.0,4.0,67,0.00,,,0.00,weatherlink.com 1.10,2013-01-05 19:51:00,
2013-01-05 15:06:00,80.9,68.0,30.13,ESE,105,0.0,6.0,65,0.00,,,0.00,weatherlink.com 1.10,2013-01-05 20:06:00,
2013-01-05 15:21:00,80.4,67.0,30.13,ESE,107,2.0,8.0,64,0.00,,,0.00,weatherlink.com 1.10,2013-01-05 20:21:00,
2013-01-05 15:36:00,78.2,67.0,30.14,NE,51,6.0,9.0,68,0.00,,,0.00,weatherlink.com 1.10,2013-01-05 20:36:00,
2013-01-05 15:51:00,77.8,67.0,30.14,East,88,5.0,11.0,69,0.00,,,0.00,weatherlink.com 1.10,2013-01-05 20:51:00,
2013-01-05 16:06:00,77.2,67.0,30.14,East,82,3.0,8.0,70,0.00,,,0.00,weatherlink.com 1.10,2013-01-05 21:06:00,
2013-01-05 16:21:00,76.6,67.0,30.14,East,85,2.0,7.0,72,0.00,,,0.00,weatherlink.com 1.10,2013-01-05 21:21:00,
2013-01-05 16:36:00,77.0,67.0,30.14,NE,34,6.0,7.0,71,0.00,,,0.00,weatherlink.com 1.10,2013-01-05 21:36:00,
2013-01-05 16:51:00,75.8,67.0,30.14,ENE,74,4.0,10.0,73,0.00,,,0.00,weatherlink.com 1.10,2013-01-05 21:51:00,
2013-01-05 17:06:00,75.2,67.0,30.14,East,81,2.0,5.0,76,0.00,,,0.00,weatherlink.com 1.10,2013-01-05 22:06:00,
2013-01-05 17:21:00,75.1,67.0,30.14,East,101,1.0,5.0,76,0.00,,,0.00,weatherlink.com 1.10,2013-01-05 22:21:00,
2013-01-05 17:36:00,74.7,67.0,30.15,East,97,1.0,4.0,77,0.00,,,0.00,weatherlink.com 1.10,2013-01-05 22:36:00,
2013-01-05 17:51:00,74.1,67.0,30.16,East,80,1.0,4.0,78,0.00,,,0.00,weatherlink.com 1.10,2013-01-05 22:51:00,
2013-01-05 18:06:00,73.6,67.0,30.15,ENE,69,3.0,4.0,79,0.00,,,0.00,weatherlink.com 1.10,2013-01-05 23:06:00,
2013-01-05 18:21:00,73.4,67.0,30.16,ENE,70,0.0,2.0,80,0.00,,,0.00,weatherlink.com 1.10,2013-01-05 23:21:00,
2013-01-05 18:36:00,73.1,67.0,30.16,ENE,70,0.0,0.0,81,0.00,,,0.00,weatherlink.com 1.10,2013-01-05 23:36:00,
2013-01-05 18:51:00,72.9,68.0,30.16,ENE,70,0.0,0.0,83,0.00,,,0.00,weatherlink.com 1.10,2013-01-05 23:51:00,
2013-01-05 19:06:00,72.5,67.0,30.17,ENE,70,0.0,0.0,82,0.00,,,0.00,weatherlink.com 1.10,2013-01-06 00:06:00,
2013-01-05 19:21:00,71.9,67.0,30.18,ENE,70,0.0,0.0,85,0.00,,,0.00,weatherlink.com 1.10,2013-01-06 00:21:00,
2013-01-05 19:36:00,71.1,67.0,30.18,ENE,70,0.0,0.0,86,0.00,,,0.00,weatherlink.com 1.10,2013-01-06 00:36:00,
2013-01-05 19:51:00,70.5,67.0,30.18,ENE,70,0.0,0.0,87,0.00,,,0.00,weatherlink.com 1.10,2013-01-06 00:51:00,
2013-01-05 20:06:00,69.9,66.0,30.18,ENE,70,0.0,0.0,88,0.00,,,0.00,weatherlink.com 1.10,2013-01-06 01:06:00,
2013-01-05 20:21:00,69.4,66.0,30.19,ENE,70,0.0,0.0,89,0.00,,,0.00,weatherlink.com 1.10,2013-01-06 01:21:00,
2013-01-05 20:36:00,68.8,66.0,30.19,ENE,70,0.0,0.0,90,0.00,,,0.00,weatherlink.com 1.10,2013-01-06 01:36:00,
2013-01-05 20:51:00,68.7,66.0,30.19,ENE,70,0.0,0.0,90,0.00,,,0.00,weatherlink.com 1.10,2013-01-06 01:51:00,
2013-01-05 21:06:00,68.7,65.0,30.19,ENE,70,0.0,2.0,89,0.00,,,0.00,weatherlink.com 1.10,2013-01-06 02:06:00,
2013-01-05 21:21:00,68.9,66.0,30.19,ENE,71,0.0,4.0,89,0.00,,,0.00,weatherlink.com 1.10,2013-01-06 02:21:00,
2013-01-05 21:36:00,68.9,66.0,30.20,ENE,71,0.0,2.0,89,0.00,,,0.00,weatherlink.com 1.10,2013-01-06 02:36:00,
2013-01-05 21:51:00,68.7,65.0,30.19,ENE,71,2.0,2.0,89,0.00,,,0.00,weatherlink.com 1.10,2013-01-06 02:51:00,
2013-01-05 22:06:00,68.4,65.0,30.19,East,81,1.0,3.0,90,0.00,,,0.00,weatherlink.com 1.10,2013-01-06 03:06:00,
2013-01-05 22:21:00,68.3,65.0,30.19,ENE,75,1.0,5.0,90,0.00,,,0.00,weatherlink.com 1.10,2013-01-06 03:21:00,
2013-01-05 22:36:00,68.1,65.0,30.19,ENE,75,1.0,2.0,91,0.00,,,0.00,weatherlink.com 1.10,2013-01-06 03:36:00,
2013-01-05 22:51:00,67.8,66.0,30.18,ENE,76,1.0,3.0,92,0.00,,,0.00,weatherlink.com 1.10,2013-01-06 03:51:00,
2013-01-05 23:06:00,67.6,65.0,30.18,ENE,65,0.0,2.0,92,0.00,,,0.00,weatherlink.com 1.10,2013-01-06 04:06:00,
2013-01-05 23:21:00,67.2,65.0,30.18,ENE,65,0.0,1.0,93,0.00,,,0.00,weatherlink.com 1.10,2013-01-06 04:21:00,
2013-01-05 23:36:00,67.0,65.0,30.17,ENE,65,0.0,2.0,93,0.00,,,0.00,weatherlink.com 1.10,2013-01-06 04:36:00,
2013-01-05 23:51:00,66.7,65.0,30.17,ENE,65,0.0,2.0,94,0.00,,,0.00,weatherlink.com 1.10,2013-01-06 04:51:00,